Weather History for Poplar Bluff, MO

Change the Weather History Date:

Thursday, February 21, 2013

  Actual Average Record
Temperature  
Mean Temperature 31 °F -  
Max Temperature 34 °F 53 °F 76 °F (1935)
Min Temperature 28 °F 28 °F 6 °F (1978)
Degree Days  
Heating Degree Days 34    
Moisture  
Dew Point 27 °F    
Average Humidity 81    
Maximum Humidity 93    
Minimum Humidity 64    
Precipitation  
Precipitation 1.28 in - - ()
Sea Level Pressure  
Sea Level Pressure 29.96 in    
Wind  
Wind Speed 12 mph (ENE)    
Max Wind Speed 22 mph    
Max Gust Speed 33 mph    
Visibility 4 miles    
Events Rain , Thunderstorm    
Averages and records for this station are not official NWS values.
T = Trace of Precipitation, MM = Missing Value Source: NWS Daily Summary

Daily Weather History Graph

Daily Weather History Graph

Search for Another Location

Airport:

Trip Planner

Search our weather history database for the weather conditions in past years. The results will help you decide how hot, cold, wet, or windy it might be!

Date:

Astronomy

Feb. 21, 2013 Rise Set
Actual Time 6:42 AM CST 5:48 PM CST
Civil Twilight 6:15 AM CST 6:14 PM CST
Nautical Twilight 5:45 AM CST 6:44 PM CST
Astronomical Twilight 5:15 AM CST 7:14 PM CST
Moon 2:06 PM CST (2/21) 3:42 AM CST (2/21)
Length of Visible Light 11h 58m
Length of Day
11h 06m
Waxing Gibbous, 84% of the Moon is Illuminated
Feb 21
Waxing Gibbous
Feb 25
Full
Mar 4
Last Quarter
Mar 11
New
Mar 19
First Quarter

Hourly Weather History & Observations

Time (CST) Temp. Windchill Dew Point Humidity Pressure Visibility Wind Dir Wind Speed Gust Speed Precip Events Conditions
12:53 AM 30.0 °F 20.5 °F 19.0 °F 64% 30.27 in 10.0 mi ENE 11.5 mph - N/A   Overcast
1:53 AM 30.0 °F 20.5 °F 19.0 °F 64% 30.27 in 10.0 mi NE 11.5 mph - N/A   Overcast
2:53 AM 30.0 °F 21.7 °F 19.9 °F 66% 30.25 in 10.0 mi ENE 9.2 mph - 0.00 in   Overcast
3:53 AM 28.9 °F 18.6 °F 19.9 °F 69% 30.23 in 10.0 mi NE 12.7 mph - 0.01 in   Overcast
4:53 AM 28.9 °F 18.6 °F 19.9 °F 69% 30.20 in 10.0 mi East 12.7 mph 21.9 mph N/A   Scattered Clouds
5:53 AM 28.9 °F 19.8 °F 19.9 °F 69% 30.19 in 10.0 mi ENE 10.4 mph - N/A   Clear
6:53 AM 28.9 °F 19.2 °F 19.9 °F 69% 30.17 in 10.0 mi NE 11.5 mph - 0.00 in   Overcast
7:53 AM 30.0 °F 20.5 °F 21.0 °F 69% 30.16 in 10.0 mi ENE 11.5 mph - 0.00 in   Overcast
8:53 AM 30.0 °F 18.7 °F 21.0 °F 69% 30.11 in 10.0 mi ENE 16.1 mph 24.2 mph 0.01 in   Overcast
9:53 AM 30.9 °F 20.7 °F 21.9 °F 69% 30.12 in 10.0 mi ENE 13.8 mph 19.6 mph 0.00 in   Overcast
10:53 AM 30.9 °F 21.2 °F 23.0 °F 72% 30.05 in 10.0 mi ENE 12.7 mph 21.9 mph 0.00 in   Overcast
11:20 AM 30.2 °F 20.2 °F 24.8 °F 80% 30.01 in 7.0 mi East 12.7 mph - 0.02 in Rain Light Freezing Rain
11:53 AM 30.9 °F 21.7 °F 24.1 °F 76% 29.99 in 7.0 mi ENE 11.5 mph - 0.05 in Rain Light Freezing Rain
12:11 PM 30.2 °F 20.8 °F 24.8 °F 80% 29.99 in 4.0 mi ENE 11.5 mph 17.3 mph 0.04 in Rain Light Freezing Rain
12:18 PM 32.0 °F 24.2 °F 24.8 °F 75% 29.99 in 2.5 mi ENE 9.2 mph 18.4 mph 0.07 in Rain , Thunderstorm Light Freezing Rain
12:31 PM 32.0 °F 24.2 °F 26.6 °F 80% 30.00 in 3.0 mi ENE 9.2 mph - 0.12 in Rain Light Freezing Rain
12:53 PM 32.0 °F 23.6 °F 27.0 °F 82% 30.01 in 2.5 mi ENE 10.4 mph - 0.23 in Rain Light Freezing Rain
1:38 PM 32.0 °F 22.5 °F 28.4 °F 87% 29.95 in 3.0 mi ENE 12.7 mph 19.6 mph 0.26 in Rain Light Freezing Rain
1:53 PM 32.0 °F 22.1 °F 27.0 °F 82% 29.93 in 2.5 mi ENE 13.8 mph - 0.33 in Rain Light Freezing Rain
2:03 PM 32.0 °F 22.5 °F 28.4 °F 87% 29.91 in 3.0 mi ENE 12.7 mph - 0.03 in Rain Light Freezing Rain
2:10 PM 32.0 °F 21.6 °F 28.4 °F 87% 29.91 in 2.5 mi NE 15.0 mph 21.9 mph 0.04 in Rain Light Freezing Rain
2:26 PM 32.0 °F 19.5 °F 28.4 °F 87% 29.89 in 1.8 mi NE 21.9 mph 26.5 mph 0.11 in Rain Light Freezing Rain
2:53 PM 32.0 °F 19.5 °F 28.9 °F 88% 29.89 in 1.2 mi ENE 21.9 mph 33.4 mph 0.27 in Rain Light Freezing Rain
3:05 PM 33.8 °F 23.5 °F 28.4 °F 81% 29.89 in 2.0 mi NE 16.1 mph 31.1 mph 0.06 in Rain Light Freezing Rain
3:15 PM 33.8 °F 23.5 °F 28.4 °F 81% 29.88 in 1.8 mi NE 16.1 mph 24.2 mph 0.10 in Rain , Thunderstorm Light Freezing Rain
3:19 PM 33.8 °F 24.3 °F 28.4 °F 81% 29.88 in 1.5 mi NE 13.8 mph 24.2 mph 0.14 in Rain , Thunderstorm Heavy Rain
3:25 PM 33.8 °F 25.3 °F 28.4 °F 81% 29.91 in 2.0 mi ENE 11.5 mph - 0.16 in Rain Rain
3:28 PM 33.8 °F 25.8 °F 28.4 °F 81% 29.93 in 3.0 mi NE 10.4 mph - 0.17 in Rain Light Rain
3:36 PM 33.8 °F 23.9 °F 28.4 °F 81% 29.90 in 2.5 mi ENE 15.0 mph 21.9 mph 0.21 in Rain , Thunderstorm Heavy Thunderstorms and Rain
3:43 PM 33.8 °F 24.3 °F 28.4 °F 81% 29.89 in 2.0 mi ENE 13.8 mph 21.9 mph 0.23 in Rain , Thunderstorm Light Freezing Rain
3:50 PM 33.8 °F 24.3 °F 28.4 °F 81% 29.88 in 2.5 mi ENE 13.8 mph - 0.24 in Rain , Thunderstorm Light Freezing Rain
3:53 PM 33.1 °F 23.0 °F 28.9 °F 85% 29.89 in 3.0 mi ENE 15.0 mph - 0.24 in Rain Light Freezing Rain
4:06 PM 33.8 °F 24.8 °F 28.4 °F 81% 29.88 in 3.0 mi ENE 12.7 mph 20.7 mph 0.01 in Rain Light Rain
4:15 PM 33.8 °F 25.3 °F 30.2 °F 87% 29.87 in 3.0 mi ENE 11.5 mph - 0.02 in Rain Light Rain
4:53 PM 33.1 °F 24.4 °F 30.0 °F 89% 29.88 in 2.0 mi ENE 11.5 mph - 0.06 in Rain Light Rain
5:16 PM 33.8 °F 25.8 °F 30.2 °F 87% 29.85 in 3.0 mi ENE 10.4 mph - N/A Rain Light Rain
5:39 PM 33.8 °F 27.0 °F 30.2 °F 87% 29.86 in 4.0 mi ENE 8.1 mph - 0.05 in Rain Light Freezing Rain
5:53 PM 34.0 °F 26.6 °F 30.9 °F 89% 29.88 in 3.0 mi NE 9.2 mph - 0.05 in Rain Light Freezing Rain
6:07 PM 33.8 °F 27.7 °F 30.2 °F 87% 29.87 in 2.5 mi NE 6.9 mph - 0.01 in Rain Light Freezing Rain
6:15 PM 33.8 °F 25.8 °F 30.2 °F 87% 29.87 in 3.0 mi ENE 10.4 mph - 0.01 in Rain Light Freezing Rain
6:51 PM 33.8 °F 26.4 °F 30.2 °F 87% 29.86 in 2.5 mi ENE 9.2 mph - 0.02 in Rain Light Freezing Rain
6:53 PM 34.0 °F 26.0 °F 30.9 °F 89% 29.88 in 2.5 mi ENE 10.4 mph - 0.02 in Rain Light Freezing Rain
7:06 PM 33.8 °F 26.4 °F 30.2 °F 87% 29.85 in 3.0 mi East 9.2 mph - 0.00 in   Overcast
7:53 PM 34.0 °F 28.0 °F 32.0 °F 92% 29.84 in 4.0 mi East 6.9 mph - 0.01 in   Overcast
9:19 PM 33.8 °F 29.6 °F 32.0 °F 93% 29.84 in 2.5 mi ENE 4.6 mph - N/A   Overcast
9:32 PM 33.8 °F - 32.0 °F 93% 29.85 in 3.0 mi Calm Calm - N/A   Overcast
9:53 PM 34.0 °F - 32.0 °F 92% 29.86 in 3.0 mi Calm Calm - N/A   Overcast
10:53 PM 34.0 °F 31.0 °F 32.0 °F 92% 29.85 in 4.0 mi WSW 3.5 mph - N/A   Overcast
11:53 PM 34.0 °F - 32.0 °F 92% 29.86 in 3.0 mi Calm Calm - N/A   Overcast